Temp
19 19 19 19 20 21 21 20 20 20 20 20 20 20 20 20 20 21 22 23 23 22 22 22 21 21 22 22 22 23 22 22 20 16 13 13 12 11 11 10 10 9 9 9 8 8 8 8 8 7 7 8 8 8 8 9 9 10 10 11 11 12 12 13 12 13 13 13 13 13 13 13 13 13 13 13 13 13 13 13 13 13 13 14 14 14
19 19 19 20 21 22 21 20 20 20 20 20 20 20 20 20 20 21 22 22 22 21 22 22 21 21 22 23 23 22 21 20 18 15 13 12 11 11 10 9 9 9 9 8 8 8 8 7 7 7 7 7 7 7 8 8 8 9 9 10 10 11 11 12 12 12 12 12 12 12 12 12 13 13 13 13 13 13 13 12 13 12 12 12 13 13
18 18 19 20 19 20 21 20 20 20 20 20 20 20 19 20 20 21 21 21 21 21 21 21 21 21 22 22 22 21 19 17 15 14 13 12 11 10 10 9 9 9 8 8 8 7 7 7 7 7 7 7 7 7 7 7 7 8 8 9 9 10 10 11 11 11 11 11 12 12 12 12 12 12 12 12 12 12 12 12 12 12 12 12 11 12
17 18 19 19 19 19 20 20 20 20 20 20 20 20 19 20 19 20 21 21 21 21 21 21 20 20 21 22 20 17 15 14 13 12 12 11 10 10 9 9 8 8 8 8 7 7 7 7 6 6 6 6 7 7 7 7 7 7 7 8 8 9 10 10 10 11 11 11 11 11 11 11 11 11 11 11 11 11 11 11 11 11 11 11 11 11
18 19 20 19 19 19 19 19 20 19 19 20 20 20 20 20 20 19 20 20 20 21 21 20 20 19 20 22 19 15 14 14 12 11 11 10 10 9 9 8 8 8 7 7 7 7 6 6 6 6 6 6 6 6 6 6 6 6 7 7 8 8 9 9 10 10 10 11 11 11 11 11 11 10 10 10 10 10 10 10 10 10 10 10 10 10
18 20 20 20 19 19 19 19 19 19 19 19 20 20 20 20 20 19 20 20 20 20 20 20 19 19 20 21 19 17 15 14 13 12 10 10 10 9 9 8 8 8 7 7 7 6 6 6 6 6 6 6 6 6 6 6 6 6 6 6 7 7 8 8 9 9 10 10 10 10 10 9 9 9 9 9 9 10 10 10 9 9 9 9 9 9
19 20 20 20 20 19 19 19 19 20 19 19 19 20 20 20 19 19 20 20 19 19 19 19 19 19 19 21 21 20 18 14 12 11 10 10 9 9 8 8 8 7 7 7 6 6 6 6 6 6 6 6 6 6 6 6 6 6 6 6 6 6 7 7 8 8 9 9 9 8 8 8 8 8 8 8 9 9 9 9 9 9 9 9 9 8
20 20 20 20 20 19 19 19 20 20 19 19 19 19 19 20 19 20 20 19 19 18 18 18 19 18 17 19 22 22 19 15 12 11 10 10 9 8 8 8 8 7 7 7 6 6 5 5 6 5 6 6 5 6 6 6 6 6 6 6 6 6 6 6 7 7 8 8 8 8 8 7 7 7 7 8 8 8 8 8 8 8 8 8 8 8
19 19 19 20 19 19 19 20 19 19 19 19 18 18 19 19 19 19 19 18 18 17 16 17 18 17 17 18 19 20 18 15 12 11 10 9 9 8 8 8 7 7 7 6 6 6 5 6 6 6 5 5 5 5 5 5 5 5 5 5 6 6 6 6 6 6 7 7 7 7 7 7 7 7 7 7 8 8 8 8 8 8 8 8 8 8
18 18 18 19 19 19 19 18 18 19 19 18 17 18 18 18 18 18 17 17 17 16 16 17 17 17 18 19 19 19 19 16 13 11 10 9 9 8 8 8 7 7 7 6 6 5 6 6 6 6 5 5 5 5 5 5 5 5 5 5 5 5 5 5 5 6 6 6 6 6 6 6 6 6 6 7 7 7 7 7 7 7 7 7 7 7
18 17 17 18 19 19 19 17 15 17 17 17 17 18 18 17 17 16 16 17 16 16 16 17 17 17 18 19 19 18 19 17 13 10 10 9 8 8 8 7 7 7 7 6 5 5 6 6 6 5 5 5 5 5 5 5 5 5 5 5 5 5 5 5 5 5 5 5 5 5 5 5 5 5 5 5 5 5 6 6 6 6 6 6 6 6
17 17 18 18 18 17 18 17 15 15 16 17 18 18 18 17 16 16 16 16 15 16 17 17 17 16 17 19 19 16 15 16 13 11 9 8 8 8 7 7 7 7 7 6 6 5 5 5 5 5 5 5 5 5 5 5 4 5 5 5 5 4 4 4 4 5 5 5 5 4 4 4 4 4 4 4 4 4 4 4 5 5 5 5 6 6
17 17 17 17 17 17 18 18 16 15 16 17 17 17 16 16 16 16 15 15 15 16 17 17 16 16 17 18 16 13 12 13 13 11 9 8 7 7 7 7 7 7 6 6 6 6 4 4 5 5 5 5 5 4 4 4 4 4 4 4 4 4 4 4 4 5 5 5 4 4 4 4 4 4 4 4 4 4 4 4 4 4 4 4 5 5
18 17 16 17 17 17 18 18 17 17 16 16 17 17 16 16 16 16 16 15 15 16 17 17 16 16 18 17 12 9 9 10 10 9 8 8 7 7 7 7 7 7 7 6 6 6 4 4 5 5 5 4 4 4 4 4 4 4 4 4 4 4 4 4 4 5 5 5 5 5 5 4 4 4 4 4 4 4 4 4 4 4 4 4 4 4
18 18 17 17 17 17 17 18 18 18 16 15 16 17 16 17 17 17 17 17 16 17 17 17 17 18 19 15 9 8 8 8 8 8 7 7 7 7 7 7 7 6 6 6 6 5 4 5 5 5 4 4 4 4 4 4 3 3 3 3 3 3 4 4 4 4 4 4 5 5 5 5 4 4 4 4 4 4 4 4 4 4 4 4 4 4
17 18 17 16 16 16 17 17 18 17 16 15 16 16 16 18 18 17 17 17 16 17 17 17 18 17 14 11 8 9 8 8 8 7 7 7 6 6 6 7 7 6 6 6 6 5 5 5 5 4 4 4 4 4 3 3 3 3 3 3 3 3 3 3 4 4 4 4 4 4 4 4 4 4 4 4 4 4 4 4 4 4 4 4 4 4
17 17 17 15 16 16 16 17 18 18 18 16 16 17 17 17 18 17 16 16 16 15 16 17 18 15 13 11 9 9 8 8 8 7 7 7 6 7 6 6 7 6 6 6 6 5 5 5 5 4 4 4 4 4 3 3 3 3 3 3 3 3 3 3 3 3 3 3 3 3 3 3 3 3 3 3 3 3 4 4 4 4 4 4 4 4
17 17 16 16 17 16 15 16 17 17 17 17 16 17 17 16 17 17 16 15 15 15 15 17 17 16 16 14 10 8 8 8 7 7 7 7 7 6 6 6 7 6 6 6 6 5 4 5 5 4 5 4 4 4 4 3 3 3 3 3 3 3 3 3 3 3 3 3 3 3 3 3 3 3 3 3 3 3 3 3 3 3 3 3 3 3
16 17 17 16 17 16 15 16 17 16 16 16 16 16 17 16 16 16 15 15 15 14 15 16 16 16 17 15 10 9 9 8 7 7 6 6 6 6 6 7 6 6 6 6 6 5 4 5 5 5 5 4 4 4 4 4 3 3 3 3 3 3 3 3 3 3 2 2 2 2 2 2 2 2 2 2 2 2 3 3 3 3 3 3 3 3
16 16 16 16 16 16 16 16 16 16 15 15 15 16 16 15 15 16 15 15 15 14 14 15 16 16 16 13 12 12 10 8 7 7 6 7 6 6 7 6 6 7 6 6 6 5 4 5 5 5 5 4 4 4 4 4 4 3 3 3 3 3 3 3 3 3 2 2 2 2 2 2 2 2 2 1 2 2 2 2 2 2 2 2 2 2
16 16 15 15 15 15 16 16 16 17 16 15 15 15 15 15 15 15 15 15 15 14 14 14 14 16 14 11 12 13 10 8 8 7 7 7 7 7 7 6 6 7 6 6 6 5 4 5 5 5 5 5 4 4 4 4 4 4 3 3 3 3 3 3 2 2 2 2 2 2 2 2 2 2 1 1 1 1 1 1 1 1 1 1 2 2
15 15 14 15 15 15 16 16 16 16 15 15 15 15 15 15 15 14 13 15 15 14 14 14 14 15 13 9 10 11 10 9 8 7 7 7 7 7 7 7 7 6 6 7 6 4 4 5 5 5 5 5 4 4 4 4 4 3 3 3 3 3 2 2 2 2 2 2 2 2 2 1 1 1 1 1 1 1 1 1 1 1 1 1 1 1
14 14 13 14 14 14 15 15 15 15 15 15 15 15 15 15 14 13 12 13 14 14 14 13 13 13 11 8 9 10 9 9 8 8 9 7 7 7 7 7 7 6 6 6 5 3 4 5 5 5 5 5 4 4 4 4 4 3 3 3 3 3 2 2 2 1 1 1 1 1 1 1 1 1 1 1 1 1 0 1 1 1 1 1 1 1
13 13 12 13 13 14 14 14 14 13 14 15 14 13 14 13 13 13 12 12 12 12 13 12 12 13 10 8 9 9 8 8 8 8 9 7 7 7 6 7 6 6 6 6 4 3 4 5 5 5 5 4 4 4 4 4 4 3 3 3 2 2 2 2 2 1 1 1 1 1 1 1 0 0 0 0 -0 -0 -0 -0 -0 0 0 0 1 1
13 12 11 12 12 12 13 14 13 13 13 13 12 12 12 12 11 11 11 11 10 11 12 11 11 13 10 7 8 9 8 8 8 8 8 7 7 7 6 6 5 5 5 5 5 4 3 4 4 4 5 4 4 4 4 4 3 3 3 2 2 2 2 2 2 2 2 1 2 1 1 1 1 1 0 0 -0 -0 -1 -1 -1 -1 -1 -1 -0 0
12 12 11 11 11 11 12 13 12 12 11 11 12 11 11 11 11 11 10 10 9 10 11 10 10 12 11 8 8 8 8 9 9 8 7 7 7 7 6 5 5 5 5 5 5 4 3 3 4 4 4 4 4 4 4 4 3 3 3 3 3 3 2 2 2 2 2 1 1 1 1 1 1 1 1 0 0 0 -0 -0 -1 -1 -1 -1 -1 -1
11 11 11 12 12 11 12 12 11 11 11 11 11 11 11 10 10 10 9 9 9 9 9 10 11 11 11 10 9 9 9 9 9 9 8 7 7 7 6 5 4 4 4 5 5 4 3 3 3 4 4 4 4 4 4 4 3 3 3 3 3 3 2 2 2 2 2 1 1 1 1 0 0 0 0 0 0 0 0 0 -0 -0 -0 -1 -1 -1
11 10 11 11 11 11 11 11 10 10 10 10 10 10 11 10 10 9 9 9 9 9 8 10 11 10 10 11 11 10 9 9 9 9 8 8 7 6 5 4 4 4 4 5 5 4 4 4 2 3 4 4 4 4 4 4 4 3 3 3 3 3 2 2 2 1 1 1 1 0 0 -0 -0 -0 -0 -1 -0 -0 -0 -0 -0 -0 -0 -1 -1 -1
11 10 10 10 10 10 10 9 10 10 9 10 10 10 10 10 9 9 8 9 9 8 8 10 10 9 10 11 10 11 10 10 10 9 8 8 7 6 5 4 4 5 4 5 4 4 5 4 2 3 5 5 4 4 4 4 4 3 3 3 3 3 2 2 2 1 1 1 0 0 -0 -1 -1 -1 -1 -1 -1 -1 -1 -1 -1 -1 -1 -1 -2 -2
10 9 9 9 9 10 9 9 9 9 9 9 9 9 9 9 9 8 8 9 9 8 9 9 9 9 10 10 10 11 10 10 9 8 8 8 6 5 5 5 5 5 5 5 4 5 5 3 1 3 5 5 4 4 4 4 4 4 3 3 3 3 2 2 2 1 1 1 0 -0 -0 -1 -1 -1 -1 -2 -2 -2 -2 -2 -2 -3 -3 -3 -3 -3
9 9 9 9 8 8 8 8 8 9 8 8 8 8 8 8 8 8 8 8 8 8 8 8 8 8 9 10 10 10 9 8 8 7 7 7 6 6 5 5 5 4 4 5 4 5 4 2 1 3 4 4 5 5 4 4 4 4 4 3 3 3 2 2 1 1 1 0 -0 -0 -1 -1 -2 -2 -2 -2 -3 -3 -3 -3 -3 -4 -4 -4 -4 -4
9 8 8 8 8 8 8 7 7 8 8 7 7 7 7 7 7 8 8 8 8 8 8 8 7 7 9 10 10 9 8 8 8 7 7 6 6 6 6 6 5 4 4 4 4 4 4 2 1 1 3 4 5 5 4 4 4 4 3 3 2 2 2 1 1 0 0 -0 -0 -1 -1 -2 -3 -3 -3 -3 -3 -4 -4 -4 -4 -5 -5 -5 -5 -5
8 8 8 8 7 7 7 7 7 7 6 6 7 7 7 7 7 7 8 8 8 8 7 7 7 8 9 9 9 8 8 8 7 7 6 6 5 6 6 5 5 5 5 4 4 4 3 2 2 3 4 5 5 5 4 4 4 3 3 2 2 2 1 1 0 -0 -0 -1 -1 -2 -3 -3 -4 -4 -4 -4 -5 -5 -5 -5 -6 -6 -6 -6 -6 -6
7 7 7 7 6 5 6 6 6 6 4 6 8 9 8 8 8 7 7 7 8 8 7 7 7 8 9 8 8 8 8 8 7 6 6 6 6 6 6 6 6 6 5 5 5 3 1 2 3 4 5 5 5 4 4 3 3 2 2 2 1 1 0 -0 -0 -1 -1 -1 -2 -3 -4 -5 -5 -5 -5 -6 -6 -6 -7 -7 -7 -7 -7 -7 -8 -8
7 6 6 7 6 5 5 5 4 4 5 7 8 8 8 8 8 8 7 7 7 7 7 7 7 7 8 8 8 8 7 6 5 5 5 6 5 5 6 6 5 5 5 6 5 2 1 2 4 4 5 4 4 3 3 2 2 1 1 1 0 -0 -1 -1 -1 -1 -2 -3 -4 -5 -6 -6 -6 -7 -7 -7 -8 -8 -8 -9 -9 -9 -9 -9 -10 -10
6 5 5 6 5 5 5 5 4 4 6 7 7 7 7 7 7 7 6 7 7 7 6 6 7 7 7 7 6 6 5 5 4 5 5 5 5 5 5 5 5 4 4 5 4 3 3 4 5 4 4 3 2 2 1 1 1 0 -0 -1 -1 -1 -2 -2 -2 -3 -4 -5 -6 -6 -7 -7 -8 -8 -9 -9 -10 -10 -10 -10 -11 -11 -11 -11 -12 -12
6 5 5 5 5 5 4 4 4 5 5 6 7 7 6 7 7 6 5 6 7 7 6 6 7 7 6 6 5 4 4 4 4 5 5 5 5 4 3 3 4 3 3 4 5 4 4 5 4 3 3 2 1 1 0 -0 -0 -1 -1 -2 -2 -2 -3 -3 -4 -5 -6 -7 -7 -8 -8 -9 -10 -10 -11 -11 -11 -12 -12 -12 -13 -13 -13 -14 -14 -14
5 5 5 4 4 5 3 3 4 3 3 5 6 5 5 6 6 6 5 5 7 6 4 6 7 6 5 5 4 4 4 4 4 5 5 5 5 5 3 2 3 4 4 5 5 4 4 3 3 2 2 1 0 -1 -1 -1 -1 -2 -2 -2 -3 -3 -4 -5 -6 -7 -8 -9 -9 -10 -10 -11 -12 -12 -12 -13 -13 -13 -14 -14 -15 -15 -15 -15 -15 -15
5 5 5 4 4 4 3 3 3 3 4 6 6 5 5 5 6 6 4 4 6 5 4 4 6 5 5 4 4 3 4 3 3 5 5 5 5 5 4 4 4 4 5 5 5 4 3 2 2 1 1 0 -1 -2 -2 -2 -2 -3 -3 -4 -5 -6 -7 -8 -9 -9 -10 -10 -11 -12 -12 -13 -13 -14 -14 -14 -15 -15 -16 -16 -16 -16 -16 -16 -16 -16
4 4 4 4 3 4 3 3 3 4 5 5 5 5 5 5 7 6 3 3 5 5 4 4 6 5 5 4 3 3 4 4 4 5 5 5 4 3 3 4 3 4 5 5 4 3 2 2 1 0 -1 -1 -2 -3 -3 -3 -3 -4 -5 -6 -7 -8 -9 -10 -10 -11 -12 -12 -13 -14 -14 -15 -15 -15 -16 -16 -16 -17 -17 -17 -17 -17 -17 -17 -17 -17
3 3 3 3 3 4 3 3 3 4 5 5 5 5 5 5 5 4 3 4 6 5 4 5 6 6 5 3 2 3 4 4 4 5 5 4 3 3 3 3 4 4 4 3 2 2 1 1 -0 -1 -2 -3 -4 -4 -4 -4 -5 -6 -7 -8 -9 -9 -10 -11 -12 -12 -13 -14 -15 -15 -15 -16 -16 -16 -17 -17 -18 -18 -18 -18 -18 -18 -18 -18 -18 -18
2 3 3 3 3 3 3 3 3 3 5 6 5 4 5 4 4 4 5 6 6 6 5 4 5 5 4 3 3 3 4 3 3 3 4 3 4 3 2 2 3 3 2 2 1 1 0 -1 -2 -3 -4 -5 -5 -5 -5 -5 -6 -8 -9 -9 -10 -11 -12 -12 -13 -13 -14 -15 -16 -16 -16 -16 -17 -17 -18 -18 -18 -18 -18 -18 -18 -18 -18 -18 -18 -18
3 3 3 3 3 3 2 2 2 2 4 5 5 4 4 4 5 6 6 5 5 6 5 4 4 4 3 3 3 2 3 3 2 2 3 3 3 2 1 1 2 2 1 1 0 -1 -1 -2 -4 -5 -6 -6 -6 -7 -7 -7 -8 -9 -10 -10 -11 -12 -13 -13 -14 -15 -15 -16 -16 -17 -17 -17 -17 -18 -18 -18 -19 -19 -19 -19 -19 -19 -19 -19 -19 -19
4 4 4 4 4 3 2 2 2 4 5 5 5 5 5 5 6 6 6 5 4 5 5 4 4 3 2 3 3 2 2 2 2 2 3 3 3 2 0 0 1 1 1 -1 -2 -3 -3 -4 -6 -7 -7 -8 -8 -8 -9 -9 -10 -11 -11 -11 -12 -13 -13 -14 -15 -16 -16 -17 -17 -17 -17 -17 -18 -19 -19 -19 -19 -19 -19 -19 -19 -19 -19 -19 -19 -19
4 5 5 5 4 4 4 4 4 5 5 4 5 6 7 7 6 5 5 6 5 4 4 4 5 4 2 2 3 2 2 2 2 3 3 3 3 2 1 0 1 0 -1 -3 -4 -5 -5 -6 -7 -8 -9 -9 -9 -10 -10 -11 -11 -12 -12 -12 -13 -14 -15 -16 -16 -17 -17 -17 -17 -17 -17 -18 -19 -19 -19 -19 -19 -19 -19 -19 -19 -19 -19 -19 -19 -19
5 5 4 4 4 4 4 5 5 4 5 4 4 5 6 6 6 4 4 5 5 4 3 3 4 5 3 2 2 2 2 2 3 3 3 3 3 1 -1 -2 -2 -2 -3 -5 -6 -6 -6 -7 -7 -8 -9 -10 -10 -11 -11 -12 -12 -13 -13 -13 -14 -15 -16 -17 -17 -17 -18 -18 -18 -18 -18 -19 -19 -19 -19 -19 -19 -19 -19 -19 -20 -20 -20 -20 -20 -20
4 4 3 4 4 4 3 4 5 4 5 6 5 4 4 5 5 4 4 4 4 4 3 3 3 4 3 2 2 2 3 2 3 3 3 3 3 2 -2 -4 -5 -5 -5 -6 -7 -7 -7 -8 -8 -9 -10 -11 -11 -12 -12 -13 -13 -13 -13 -14 -15 -16 -17 -17 -18 -18 -18 -19 -19 -19 -19 -19 -19 -19 -19 -19 -20 -20 -20 -20 -20 -20 -20 -20 -20 -20
4 4 3 3 3 3 3 4 5 5 5 5 4 4 4 4 4 4 4 4 4 4 3 3 2 3 3 3 2 2 3 2 2 3 3 2 2 -0 -4 -6 -6 -6 -6 -7 -7 -8 -8 -8 -9 -10 -11 -12 -12 -13 -14 -14 -14 -13 -14 -15 -16 -17 -17 -18 -18 -19 -19 -19 -19 -19 -19 -20 -20 -20 -20 -20 -20 -20 -20 -20 -20 -20 -20 -20 -20 -20
4 4 3 3 3 3 3 3 4 4 4 4 3 3 3 4 4 4 3 3 3 3 3 2 1 1 2 3 3 2 3 3 3 2 2 2 1 -3 -6 -7 -6 -6 -8 -8 -8 -8 -9 -9 -10 -11 -12 -13 -14 -14 -15 -14 -14 -14 -15 -16 -16 -17 -18 -18 -19 -19 -19 -19 -19 -20 -20 -20 -20 -20 -20 -20 -20 -20 -20 -20 -20 -20 -20 -20 -19 -19
3 3 3 3 2 2 2 3 3 3 3 3 4 4 4 3 3 3 4 3 3 3 3 3 2 1 0 1 1 2 3 3 2 0 0 0 -3 -6 -7 -7 -7 -8 -8 -9 -9 -10 -10 -10 -12 -13 -13 -14 -15 -15 -15 -15 -14 -14 -15 -16 -17 -18 -19 -19 -19 -20 -20 -20 -20 -20 -20 -20 -20 -20 -20 -20 -20 -20 -20 -20 -20 -20 -19 -19 -18 -18
3 3 3 3 2 2 3 4 4 3 3 4 4 4 4 4 3 3 3 3 3 3 3 3 4 3 1 0 -1 -0 2 2 -1 -3 -1 -2 -6 -7 -6 -7 -8 -8 -9 -10 -10 -11 -12 -12 -13 -14 -15 -15 -15 -16 -16 -16 -15 -15 -16 -17 -18 -18 -19 -19 -20 -20 -20 -20 -20 -20 -20 -21 -21 -21 -21 -21 -21 -20 -20 -20 -20 -20 -20 -19 -18 -17
Height
815 823 829 827 823 819 815 816 815 814 816 818 820 821 822 823 820 811 804 798 796 803 804 801 804 804 801 796 791 786 785 788 793 801 807 809 810 812 813 815 815 816 817 817 815 812 810 810 810 808 806 804 802 801 799 797 797 797 797 797 797 798 797 795 794 793 793 794 794 795 795 796 797 798 799 800 801 801 802 803 804 805 806 807 807 808
816 825 825 817 813 809 808 811 813 815 816 818 820 821 821 822 818 809 804 799 796 805 805 800 804 804 798 794 787 784 788 792 796 803 808 810 812 814 814 816 817 817 818 817 816 814 812 812 811 809 807 805 803 803 802 801 801 800 800 800 800 801 800 798 797 795 794 796 797 798 798 799 799 800 800 801 801 802 802 803 804 805 806 807 808 809
824 826 817 809 809 808 808 810 812 814 815 817 819 821 823 820 816 810 804 800 799 805 806 802 805 804 798 792 787 787 794 800 802 804 809 811 813 815 816 818 818 819 819 818 818 817 816 815 813 810 808 807 807 806 805 804 804 803 802 803 803 803 802 801 799 797 796 797 798 799 800 801 802 802 803 803 803 803 804 804 805 805 806 807 808 808
827 821 809 805 809 811 812 811 812 813 814 816 817 820 821 816 819 817 807 803 802 803 804 804 806 806 800 792 793 799 801 805 809 808 811 813 814 817 818 819 819 819 820 820 820 821 820 819 816 814 812 811 810 809 808 808 807 807 806 806 806 806 805 803 801 799 798 798 798 800 801 802 803 804 805 805 805 805 805 806 806 806 806 807 807 808
815 807 802 804 809 812 814 813 812 816 817 816 813 815 815 812 816 817 810 806 804 803 801 804 810 808 799 792 798 807 806 807 812 812 815 817 818 819 819 820 821 821 822 822 823 824 823 822 820 817 816 814 812 811 811 811 810 810 809 809 809 809 808 806 804 802 800 798 799 800 802 803 804 805 806 806 807 807 807 807 807 807 807 807 808 808
810 801 799 804 807 810 813 814 811 814 818 816 810 808 808 808 811 812 812 811 813 813 805 806 817 813 797 792 797 803 806 809 813 815 819 821 821 822 822 823 824 824 824 824 825 826 825 824 822 820 818 817 815 814 814 814 814 813 812 812 812 812 812 809 806 804 802 800 799 801 803 805 806 807 808 808 809 809 809 809 809 809 809 809 809 808
804 799 798 802 804 807 811 812 808 809 817 819 810 804 805 807 810 812 811 814 819 820 810 808 819 819 803 794 791 790 798 808 814 817 821 823 824 824 825 826 827 827 826 825 827 827 827 825 824 822 821 820 819 819 818 817 817 816 815 814 814 815 815 813 810 807 803 801 800 802 805 807 808 809 810 810 810 810 810 810 810 810 810 810 810 809
799 799 801 801 803 807 810 809 805 805 815 818 808 806 807 806 810 810 810 815 817 818 816 811 815 822 814 800 786 780 792 808 815 820 823 825 827 827 828 829 829 830 828 827 827 826 827 826 826 826 826 825 823 822 821 820 819 818 817 816 816 817 817 816 814 810 805 802 802 804 806 808 809 810 811 811 811 810 810 810 810 810 810 810 810 810
799 802 802 801 806 810 808 804 802 804 811 812 808 809 808 807 810 810 812 818 819 822 826 817 815 822 815 800 789 784 794 808 815 820 825 827 828 829 830 831 830 830 830 829 827 826 826 827 829 830 829 828 826 824 823 822 821 820 819 819 818 817 818 818 818 813 807 804 804 806 808 809 810 811 811 811 811 811 810 810 810 810 810 810 810 810
802 804 803 803 807 807 803 803 804 804 807 809 809 810 809 810 813 815 819 822 824 829 828 818 816 820 811 794 790 790 792 801 812 820 824 826 828 829 831 833 832 830 830 830 829 828 828 829 830 832 831 830 828 826 825 823 823 822 821 820 819 819 820 821 821 816 809 806 806 808 810 811 812 812 812 812 811 811 811 811 810 810 810 810 810 810
804 804 804 802 803 801 801 808 811 808 808 809 809 810 812 816 818 821 824 824 831 831 820 813 810 815 813 794 786 790 787 790 806 819 824 826 828 830 832 833 834 833 831 831 831 831 831 830 831 832 832 831 830 828 826 825 824 824 823 823 822 823 823 824 823 818 812 809 809 811 813 814 814 814 813 812 812 812 812 811 811 811 810 810 810 810
806 805 803 799 799 801 801 807 812 812 811 809 811 813 817 821 822 828 829 831 838 828 811 810 810 815 818 796 785 795 792 787 797 810 820 826 829 832 833 834 835 834 833 833 833 833 832 832 831 832 833 833 832 829 827 826 826 826 826 825 825 825 826 826 823 819 815 812 812 814 816 817 817 816 815 814 815 814 813 813 813 812 811 810 810 810
806 804 802 799 799 800 801 807 813 814 812 811 814 819 827 831 830 832 835 837 837 822 807 807 810 816 810 793 793 805 803 796 798 807 818 824 829 832 833 835 835 835 835 834 834 834 834 833 832 832 833 834 834 832 829 828 828 828 828 827 827 827 828 826 824 820 817 814 814 817 819 820 820 819 818 817 817 816 815 815 814 813 813 812 811 811
806 804 803 803 800 797 800 806 810 811 813 815 814 819 829 833 833 832 831 834 830 816 806 804 808 810 797 794 810 817 813 809 808 814 821 824 829 832 833 834 835 835 835 835 835 835 835 834 833 833 835 837 837 834 831 830 831 831 830 830 829 829 828 827 824 822 819 817 817 819 821 822 822 821 820 820 819 818 817 816 816 815 815 814 813 812
810 806 801 801 798 796 797 798 801 804 810 814 811 814 819 817 820 823 819 821 821 812 806 806 806 799 790 803 822 823 819 819 818 821 825 827 830 832 832 834 834 835 835 834 834 834 834 834 834 835 837 838 837 834 832 832 833 833 832 832 830 829 829 827 825 822 820 820 821 822 823 824 824 823 822 822 821 820 819 818 818 817 816 816 815 814
811 805 796 797 797 795 797 795 796 801 809 813 810 813 815 807 806 813 813 812 815 815 810 804 799 797 804 819 827 823 823 823 824 827 828 829 832 832 833 833 832 833 833 833 834 834 834 835 835 836 838 839 837 834 833 834 835 835 834 833 831 830 829 827 825 823 822 823 824 825 826 826 827 826 824 823 822 821 821 820 819 818 818 818 817 816
807 804 797 799 798 796 798 796 794 798 803 809 812 810 809 805 803 811 815 811 814 820 812 798 795 802 812 821 825 825 826 827 828 829 829 831 832 832 832 832 832 832 832 833 833 833 834 835 835 837 838 837 835 834 834 835 835 834 832 832 831 829 828 827 826 825 825 826 826 827 828 829 829 827 825 824 823 823 822 821 820 820 819 818 817 816
802 804 798 797 797 797 799 798 795 797 799 804 810 805 801 805 805 809 819 818 818 822 812 796 797 801 800 808 824 828 826 829 831 830 831 832 831 832 832 831 831 831 831 832 832 833 834 835 836 836 836 836 835 834 834 834 833 832 832 831 830 830 829 829 828 828 829 829 829 830 830 830 830 828 826 825 824 824 823 822 821 821 820 819 818 817
800 804 800 795 797 798 799 800 799 800 799 801 804 801 803 811 811 810 818 822 821 821 814 800 798 797 792 800 819 823 821 827 830 830 832 831 831 831 830 831 831 831 832 832 832 833 834 834 835 835 835 834 834 834 833 832 832 832 832 832 831 831 831 831 831 831 831 831 831 831 831 830 830 828 827 826 825 824 823 823 822 821 821 820 819 817
798 805 805 797 796 799 799 802 805 804 802 802 803 803 805 810 812 811 812 814 815 817 815 807 800 795 793 800 807 809 815 823 827 829 831 830 830 830 829 830 830 830 831 831 832 833 833 833 833 833 833 833 832 832 831 832 832 832 833 833 832 833 833 832 832 832 832 831 831 831 831 830 830 828 827 826 825 824 823 822 822 821 821 820 819 817
798 804 808 802 799 802 801 801 802 800 801 804 806 808 808 808 809 811 809 806 810 815 814 812 806 794 797 807 803 800 810 819 822 826 828 828 829 829 828 828 828 829 829 830 831 831 831 832 832 831 831 831 831 831 831 832 833 833 833 833 833 833 833 833 833 832 832 832 831 831 830 830 829 828 827 826 825 824 822 822 821 820 820 819 818 816
800 804 808 806 803 803 800 796 796 798 802 805 807 808 808 809 811 816 816 806 805 810 808 810 807 795 800 814 809 804 811 816 820 823 825 826 825 824 826 825 826 826 827 828 829 829 829 830 830 830 830 830 830 831 832 833 833 834 834 834 834 834 834 834 833 833 832 832 831 831 830 830 829 828 826 825 824 823 821 820 820 819 818 816 816 814
803 807 809 807 803 801 798 795 796 799 799 802 806 805 804 807 809 815 818 810 805 807 803 806 808 801 808 819 814 811 813 815 819 820 819 822 822 821 823 823 823 824 824 826 827 827 828 828 829 829 829 830 831 831 832 833 834 834 834 834 834 834 833 833 833 832 832 831 830 830 829 828 827 826 825 823 822 822 821 820 819 818 816 815 813 812
804 809 812 809 803 800 797 796 799 800 799 801 806 808 807 809 811 813 816 815 816 812 804 810 812 802 809 819 815 815 816 816 819 816 814 819 820 821 822 820 821 822 823 825 826 826 827 827 828 828 828 830 830 831 832 833 833 834 834 834 833 833 833 832 832 831 830 829 829 828 827 826 825 824 823 822 821 820 820 819 818 816 815 813 812 810
806 810 816 817 814 809 803 800 802 803 806 808 810 812 813 813 816 818 817 821 827 818 809 817 814 800 808 821 817 815 817 816 817 816 816 818 818 819 820 819 820 822 823 824 825 825 826 826 827 827 828 829 830 830 831 832 833 833 833 833 832 832 831 831 830 829 828 828 827 826 825 824 823 822 821 820 819 818 818 817 816 814 813 811 809 808
806 808 812 815 818 817 810 805 806 809 812 812 811 812 813 814 816 819 821 826 829 822 817 821 814 800 806 818 818 817 817 815 814 815 817 816 815 816 816 818 820 822 822 823 824 825 826 826 826 826 827 828 828 829 830 830 831 831 831 831 830 830 830 829 829 828 827 826 825 824 823 822 821 820 819 818 817 816 815 814 813 812 810 809 807 805
808 810 809 807 808 808 806 805 809 815 816 814 813 812 812 815 818 820 825 827 826 825 824 816 809 806 804 805 811 815 815 814 811 811 814 813 813 813 814 817 820 821 822 822 823 825 825 825 826 825 826 827 827 828 828 828 829 829 829 829 829 829 828 828 828 826 826 825 824 824 823 822 821 820 819 818 816 815 814 812 811 810 808 807 805 803
809 811 809 809 808 806 806 810 813 817 818 817 816 814 811 812 816 821 825 823 821 828 825 807 803 811 806 798 802 807 810 811 809 809 810 810 809 811 814 818 819 820 821 822 822 823 823 824 824 824 824 825 825 826 826 826 827 826 827 827 827 827 827 826 826 825 825 824 823 823 822 821 821 819 818 817 815 814 813 811 810 808 806 805 803 801
809 811 808 812 813 808 810 815 815 816 818 817 816 815 812 811 814 819 822 818 818 822 817 804 804 809 805 800 800 802 803 804 804 805 806 806 808 811 814 816 817 818 818 819 821 821 821 821 821 821 822 822 823 824 823 824 824 824 824 824 824 824 824 824 824 823 823 822 821 821 821 820 819 818 817 816 814 813 811 810 808 806 805 803 801 800
810 812 811 813 814 812 813 817 817 817 818 817 816 815 813 812 814 817 816 812 813 816 811 807 809 806 801 800 799 799 800 801 803 805 805 805 808 810 812 814 814 815 816 817 817 818 818 818 818 819 819 820 821 821 821 821 822 822 822 822 822 822 822 822 822 821 821 820 819 819 818 818 816 815 814 813 812 810 809 807 806 804 802 801 799 797
810 814 814 814 817 817 815 819 821 819 819 819 816 813 812 814 816 815 813 810 812 814 809 808 812 807 799 797 797 799 800 801 803 805 804 805 807 808 810 811 812 814 814 814 815 815 816 816 816 817 817 817 818 818 818 819 819 819 820 820 820 820 820 821 820 820 819 818 818 817 817 816 815 813 812 811 810 808 806 805 803 801 800 797 796 794
810 815 815 816 822 819 814 821 823 818 820 824 818 811 810 814 814 809 808 808 807 807 807 809 812 807 799 796 796 799 801 800 801 803 804 806 807 807 808 809 811 812 813 813 813 813 814 814 814 814 814 814 815 815 816 816 816 817 817 818 819 819 819 819 818 818 818 817 817 817 816 815 814 812 811 809 808 806 804 803 801 799 797 795 793 790
811 816 816 818 825 823 819 825 824 822 832 829 811 803 805 807 809 807 806 804 801 803 807 808 805 800 797 797 798 799 800 800 800 802 804 806 807 807 807 807 809 810 810 810 811 811 812 811 811 811 810 811 812 812 813 813 814 815 815 816 817 817 817 817 816 816 816 815 815 815 814 814 812 811 809 808 806 804 802 801 798 796 795 792 790 787
813 815 816 818 827 830 827 826 828 835 837 817 794 792 798 798 801 803 802 799 798 799 801 801 799 798 797 796 797 797 797 798 800 802 804 805 806 806 806 807 807 808 808 808 808 809 809 808 808 808 808 809 810 810 811 812 812 813 814 814 815 815 815 814 814 814 814 813 813 813 812 812 810 809 807 806 804 802 800 799 796 794 792 790 787 784
814 818 820 819 827 834 829 830 840 839 820 799 790 793 795 794 794 797 798 797 797 798 797 798 800 799 797 796 796 796 797 800 803 804 804 805 805 804 805 805 805 806 807 807 807 807 806 806 807 807 807 808 808 809 810 810 811 812 812 813 813 813 813 812 812 812 812 811 811 810 810 809 807 806 804 803 802 800 798 796 794 791 790 787 784 781
813 820 822 820 825 831 829 831 835 824 804 795 796 796 797 798 797 799 801 798 794 796 798 798 798 796 796 798 798 799 801 803 804 804 804 804 804 804 804 804 804 806 805 805 805 805 805 805 805 806 806 807 807 808 809 809 810 810 811 811 811 811 810 810 810 810 810 809 809 808 807 806 804 803 801 799 798 796 794 792 790 788 786 783 780 777
811 817 820 824 825 827 831 828 819 814 809 800 793 793 795 796 794 798 804 799 791 793 798 796 793 793 796 798 800 803 804 805 804 803 803 803 803 803 803 803 803 804 803 803 803 802 803 803 803 804 805 805 806 806 807 808 808 809 809 809 809 808 809 809 808 808 808 807 806 806 805 803 802 800 798 796 794 791 789 788 785 783 782 779 775 772
810 811 815 824 823 821 831 832 824 825 820 800 791 795 796 795 794 796 803 801 793 794 799 796 792 795 798 801 804 805 805 806 805 801 800 802 801 801 801 801 800 801 800 800 800 800 801 801 802 802 803 803 804 805 805 806 806 806 806 806 806 807 807 806 806 806 805 805 804 803 802 801 799 797 795 792 790 788 785 784 781 779 778 775 771 767
812 811 812 821 822 819 826 828 825 823 810 793 792 796 796 796 794 794 805 805 792 792 800 797 794 797 799 800 803 804 805 807 805 800 799 800 799 798 799 798 798 798 798 798 797 798 799 799 800 800 801 801 802 803 803 803 803 804 804 804 805 805 804 804 804 803 802 801 801 800 798 797 796 794 792 789 787 785 782 780 777 775 773 771 768 763
814 815 816 821 820 817 820 821 816 807 796 791 794 795 795 794 790 799 814 807 790 792 798 795 793 795 796 799 803 803 803 803 800 796 796 797 797 797 797 797 796 796 796 796 796 796 797 797 798 798 799 799 800 800 801 801 801 802 802 803 803 803 802 802 801 800 799 798 797 796 795 794 792 790 789 786 784 781 779 777 774 771 769 766 763 759
819 818 816 817 815 813 814 815 809 799 790 790 793 792 793 794 796 806 808 794 786 792 794 791 791 792 793 799 801 799 796 794 793 792 793 795 795 795 795 794 794 794 794 794 795 795 796 796 796 796 797 798 798 799 799 799 799 800 800 801 801 800 800 799 797 796 795 794 793 792 791 789 788 786 785 783 781 778 775 773 771 768 765 761 758 754
818 817 815 814 813 813 811 809 809 802 789 786 790 792 793 796 799 798 790 783 784 788 789 791 791 790 793 796 796 794 791 790 791 792 792 793 793 793 793 793 792 792 793 793 794 794 794 794 795 796 796 797 797 797 797 797 798 798 799 799 798 798 796 795 794 792 791 790 789 788 786 785 784 783 781 779 777 774 771 769 767 764 761 758 753 749
805 810 813 809 806 810 812 814 814 805 788 783 788 791 792 791 788 783 781 784 785 783 785 790 789 789 792 793 792 792 790 789 791 791 790 791 791 791 791 790 790 791 791 791 792 793 793 793 794 795 795 796 796 796 795 796 796 796 797 796 796 795 793 791 790 789 787 786 784 783 782 781 780 779 778 776 774 771 767 765 763 760 757 754 750 745
797 799 799 795 795 801 805 804 799 789 779 780 783 783 783 782 779 778 780 783 784 784 785 786 785 787 789 788 788 789 788 788 789 788 788 789 789 788 789 788 788 789 789 790 791 792 792 793 793 794 795 795 795 794 794 794 794 794 794 794 793 791 789 788 787 785 783 782 781 779 778 777 776 775 774 772 770 767 764 761 758 756 753 751 747 742
788 784 781 781 782 786 787 784 781 777 777 780 780 776 776 776 777 779 779 778 780 783 783 782 782 783 784 785 785 785 785 785 785 785 785 786 785 786 786 786 786 786 786 788 790 790 791 792 792 793 793 793 793 792 792 792 792 792 792 791 789 788 786 785 783 781 780 778 777 776 774 773 772 771 770 768 767 764 761 758 755 752 749 747 744 740
780 779 781 779 776 778 779 777 777 778 777 778 778 777 775 775 775 777 778 778 778 778 779 781 780 778 780 782 783 783 782 782 781 782 782 782 783 783 784 784 785 785 785 787 788 788 789 790 790 790 791 790 790 790 790 790 790 789 789 787 786 785 783 782 780 778 777 775 774 772 771 769 768 767 766 765 763 761 758 755 752 749 746 743 740 737
779 778 781 779 775 780 781 775 774 776 773 772 774 775 775 775 773 773 775 775 774 774 775 776 776 776 777 778 778 779 778 777 778 779 779 779 780 780 781 782 783 784 784 785 786 786 787 787 787 787 787 787 788 788 788 788 788 787 786 784 783 782 780 779 777 775 774 773 771 769 769 767 765 763 762 760 759 757 754 752 750 747 743 740 737 733
778 776 779 779 777 780 779 772 771 772 769 768 771 772 772 771 770 770 771 771 770 771 771 771 772 773 773 774 774 775 774 774 775 775 775 776 777 777 779 780 781 782 783 783 784 784 785 784 785 784 784 785 785 785 785 785 785 784 783 782 781 779 778 776 775 773 772 770 769 767 766 765 763 760 758 756 754 753 750 748 746 743 740 738 734 729
775 774 775 776 777 777 775 771 771 773 771 768 768 769 767 766 766 767 767 767 767 768 768 768 769 769 768 769 770 770 771 771 772 772 773 774 774 775 777 778 779 780 781 781 782 782 782 782 782 782 782 783 783 783 783 782 782 782 780 779 778 777 775 774 772 771 769 768 766 765 764 762 760 758 755 752 750 749 747 746 743 740 736 733 731 728
773 772 770 774 778 776 770 766 767 771 769 763 761 762 761 761 763 763 763 763 764 764 764 764 764 764 765 765 765 767 768 768 769 770 771 771 772 774 775 776 777 778 779 779 780 780 780 781 781 781 781 781 781 781 780 780 779 779 778 777 776 774 773 771 769 768 766 765 764 763 761 759 757 755 753 750 747 744 743 741 741 738 733 729 726 724
764 763 764 769 771 766 759 756 759 762 761 756 756 756 756 757 759 759 759 759 758 758 759 760 760 760 762 762 763 764 764 765 766 767 768 769 770 771 772 774 775 776 777 778 778 778 779 779 779 779 779 779 779 779 778 777 777 776 775 774 774 772 771 769 767 765 763 762 761 760 758 756 754 752 750 747 745 742 738 735 734 733 730 726 722 719
Wind_Speed
3 4 2 4 6 9 10 11 11 10 7 7 6 6 6 5 5 6 6 5 3 2 6 7 6 5 6 8 10 12 8 6 6 8 8 7 8 7 8 9 8 9 8 11 18 23 25 26 26 26 27 29 30 31 32 31 30 29 27 26 25 24 22 21 21 20 19 16 14 12 10 7 6 5 4 3 3 4 4 3 4 5 6 9 12 16
4 4 6 9 11 12 11 9 8 7 7 6 6 6 5 5 6 6 6 6 2 2 6 4 2 6 7 8 13 10 5 4 5 9 8 9 9 6 9 9 8 7 6 10 16 21 24 25 25 27 28 30 31 31 31 31 30 29 28 27 25 24 22 22 21 21 21 20 18 17 15 12 10 8 5 4 3 4 5 5 6 6 6 6 7 11
3 4 10 12 11 10 9 7 6 7 7 6 5 3 3 4 4 6 6 5 0 3 5 5 3 6 8 10 13 7 5 4 4 8 8 9 9 7 8 7 7 7 7 9 12 17 21 22 24 26 28 30 30 31 31 31 30 30 29 27 26 25 24 23 21 20 20 20 18 17 17 15 14 12 9 6 5 4 4 5 7 8 8 8 8 9
4 6 12 13 8 7 9 8 7 7 5 5 4 3 4 4 2 4 5 4 1 2 3 4 4 5 7 8 7 6 7 8 8 9 8 7 9 8 7 7 7 8 8 9 9 12 17 20 22 25 26 27 28 30 31 30 29 29 29 28 27 26 25 23 21 20 19 18 18 17 17 18 17 16 13 11 10 8 7 6 7 7 7 8 9 9
7 8 10 9 7 7 9 9 7 6 4 4 5 5 5 5 5 6 4 4 3 4 2 1 4 4 6 8 1 4 5 8 8 9 10 7 7 8 8 8 8 8 8 8 8 9 12 16 19 23 24 25 27 29 29 29 29 29 29 28 27 26 24 23 21 20 19 19 19 18 18 19 20 20 19 17 14 12 10 10 10 9 8 8 8 8
8 7 5 6 7 7 7 8 7 6 4 4 4 7 8 8 8 7 2 4 4 5 3 1 3 5 5 7 5 4 5 6 5 7 9 7 6 6 7 8 7 7 7 8 8 8 11 15 19 23 25 26 28 28 28 29 29 29 29 29 28 27 25 23 22 21 21 23 23 22 22 22 22 22 22 20 16 14 12 11 11 11 11 11 10 9
5 6 5 6 8 7 7 7 6 6 4 3 5 6 7 7 6 5 2 2 0 4 3 3 1 5 5 5 5 5 5 7 5 7 7 5 6 6 6 7 5 6 6 7 8 9 12 16 19 23 25 26 26 26 26 27 28 29 30 30 30 29 27 25 24 22 23 25 25 25 24 24 23 22 21 20 17 16 14 12 11 12 12 12 11 11
4 4 4 4 4 5 6 6 5 7 6 4 5 3 4 4 5 4 4 3 3 3 5 2 3 4 6 4 9 10 5 7 6 6 6 5 6 6 6 6 5 6 5 6 7 9 13 17 19 21 22 23 24 25 26 27 28 29 29 30 30 30 30 28 26 25 26 27 26 25 24 23 22 21 20 18 16 15 15 13 13 13 12 12 12 12
1 3 4 5 4 3 5 5 4 8 5 5 4 4 5 5 4 3 4 2 2 2 5 3 4 2 6 5 9 9 5 5 5 6 6 6 6 6 6 6 5 6 5 6 7 9 13 17 18 18 19 21 23 25 26 26 27 28 29 30 31 32 31 29 29 28 29 29 28 27 25 24 22 20 18 16 15 15 15 15 15 15 15 13 12 12
1 3 5 5 4 5 6 3 2 7 4 4 2 4 4 4 4 4 4 3 3 2 5 6 5 3 5 6 5 2 4 6 6 6 6 6 6 6 6 5 5 5 6 6 7 11 14 17 17 17 19 21 23 24 25 26 27 28 29 30 31 31 30 29 29 30 32 31 31 29 28 26 24 22 20 19 19 18 17 17 17 17 17 16 14 13
3 1 2 3 4 5 4 1 3 4 3 2 5 5 6 5 5 4 2 4 3 3 6 8 9 6 2 6 4 2 3 7 9 7 7 7 7 6 5 5 4 5 5 5 7 11 15 17 17 17 19 20 21 23 24 26 26 27 27 28 29 29 28 28 29 31 33 33 32 31 29 29 27 26 25 25 25 23 22 21 20 18 17 16 16 14
4 2 2 2 2 3 5 2 3 4 3 4 5 4 4 4 4 5 4 4 2 5 6 7 8 7 4 6 3 3 5 5 11 11 12 10 8 7 5 5 4 4 5 5 5 8 12 14 15 17 18 19 20 22 23 24 25 25 25 26 27 27 26 27 28 31 32 32 32 31 29 28 27 27 27 27 27 25 25 24 23 21 20 19 17 16
3 4 4 2 1 4 5 1 3 6 5 5 4 5 3 3 3 2 1 0 3 6 6 4 4 4 6 5 1 4 7 4 8 9 12 12 9 8 6 5 5 4 4 5 5 5 7 9 12 14 15 15 17 19 21 22 22 23 24 25 26 25 25 26 28 30 31 32 32 30 29 28 27 27 27 27 26 25 25 24 24 24 23 23 22 20
3 5 2 1 3 2 7 4 2 2 1 4 4 4 4 2 1 2 4 2 3 5 5 3 3 2 5 2 4 5 5 6 10 11 10 10 10 8 7 6 5 5 5 4 4 4 5 7 10 11 11 11 12 15 18 19 20 21 22 23 24 24 24 25 27 29 31 31 30 29 28 27 27 27 27 27 27 26 25 25 24 24 23 23 23 22
2 5 3 5 2 4 8 7 5 4 3 5 5 5 4 4 4 3 4 3 3 4 4 3 1 3 3 0 4 4 6 8 10 10 9 9 8 7 7 6 5 5 4 4 4 4 6 8 9 9 8 8 10 14 17 18 19 21 21 22 23 23 23 25 27 29 30 29 28 28 27 26 26 26 26 26 26 26 26 25 25 24 24 24 23 23
4 5 5 2 1 5 6 4 5 7 1 3 3 4 2 4 4 2 3 4 3 2 4 3 2 2 3 2 3 5 7 9 9 9 9 8 6 6 6 5 5 4 4 4 4 4 6 8 9 8 7 8 12 15 16 17 18 20 21 22 23 23 23 25 27 28 28 27 27 26 25 25 24 24 24 25 24 25 24 24 24 24 24 24 23 23
2 4 3 3 2 4 6 4 3 4 1 1 3 3 5 4 5 1 4 2 2 2 4 2 2 2 2 2 2 5 7 8 7 7 8 6 6 6 5 5 4 4 4 4 4 4 6 8 8 8 8 9 12 14 14 14 15 17 20 22 22 22 23 23 24 24 24 24 24 23 22 22 22 22 23 23 22 22 22 22 22 22 22 23 23 23
2 3 3 2 1 3 3 2 2 1 3 3 2 4 3 1 3 3 1 2 1 4 3 2 6 5 2 2 1 4 6 6 5 6 7 6 6 6 5 5 4 4 4 4 4 5 7 8 8 8 8 9 11 12 12 12 13 15 17 19 21 21 21 20 20 19 19 19 19 19 19 19 19 20 20 20 20 20 20 21 21 21 22 22 22 22
2 1 5 2 4 2 2 4 3 5 3 4 3 2 1 1 2 1 1 2 4 6 4 4 8 6 4 4 4 6 7 7 7 6 6 6 6 5 5 5 5 4 4 4 4 4 6 8 7 7 7 8 10 10 12 13 13 14 15 15 17 18 18 17 16 16 15 15 14 14 15 16 17 18 18 18 18 18 19 20 20 21 21 22 22 22
2 1 4 3 1 0 3 3 2 3 3 2 1 2 1 3 3 2 2 3 3 5 5 5 6 4 3 3 6 9 10 10 9 7 6 6 6 6 5 5 5 5 5 5 5 5 6 8 7 7 7 8 9 9 10 12 12 13 13 13 13 14 15 16 15 14 14 14 13 12 13 14 15 16 17 17 17 18 19 20 20 21 21 21 22 22
1 2 3 4 3 1 0 1 5 4 1 1 2 2 1 1 1 2 2 2 3 3 4 5 5 4 3 1 3 8 10 10 10 9 7 6 7 7 7 6 6 6 6 6 5 5 6 8 7 7 7 7 7 7 7 9 9 9 9 10 10 10 12 13 13 13 12 13 12 12 13 13 15 16 17 17 17 17 19 20 21 22 22 23 23 23
1 1 2 2 3 2 4 5 4 5 4 3 2 3 3 2 1 3 4 2 3 3 4 5 6 5 2 3 2 3 7 8 8 9 8 7 9 9 7 7 7 7 6 6 5 5 7 7 6 6 5 5 5 5 5 5 6 7 7 8 7 6 8 9 10 11 11 11 11 11 11 12 14 17 19 19 19 18 19 21 22 24 24 26 26 26
2 2 2 3 4 4 6 6 2 2 3 4 3 2 3 3 3 3 5 3 1 2 2 2 4 3 1 2 2 3 6 8 9 9 9 9 9 9 8 8 8 7 7 6 5 7 8 8 7 7 6 4 4 4 3 4 4 5 5 6 6 5 6 7 8 10 11 12 12 12 12 12 14 17 20 21 21 20 19 21 23 25 26 27 28 28
3 2 1 3 4 3 5 4 3 4 2 1 1 1 1 2 2 3 4 1 1 3 3 2 4 3 1 2 1 3 5 7 7 8 9 8 7 7 9 9 8 7 6 5 6 7 9 9 9 10 9 8 7 5 5 6 5 4 4 4 6 6 6 7 8 11 13 15 16 17 17 18 19 21 22 22 22 21 20 21 23 24 26 27 29 30
1 1 2 0 2 4 6 5 5 5 3 1 2 1 2 2 1 1 0 2 1 4 4 4 5 3 1 2 2 1 4 6 6 7 7 7 7 7 8 8 6 6 6 6 6 6 8 9 10 11 11 9 8 7 6 7 6 4 3 2 4 7 8 8 8 12 15 17 19 21 22 23 24 25 26 26 26 26 24 24 25 26 26 27 29 30
2 2 3 3 3 5 4 3 3 2 2 0 2 3 1 2 1 0 1 1 2 1 1 3 4 3 2 1 1 2 3 5 7 7 6 6 7 8 7 6 6 6 6 7 6 6 7 8 10 11 11 9 9 7 6 5 4 2 1 2 5 8 10 10 10 13 15 17 20 23 24 25 27 28 29 29 29 29 29 28 29 29 29 30 31 32
2 1 2 5 6 7 6 6 4 3 1 2 4 6 7 5 3 3 2 3 3 0 3 7 7 6 8 7 5 6 6 7 8 7 7 7 8 8 7 6 6 6 6 6 6 6 6 7 8 10 10 9 8 7 5 3 2 2 3 4 5 7 9 10 10 12 14 16 19 22 24 25 26 28 29 30 30 30 30 30 31 32 33 33 33 34
4 2 4 6 6 6 5 5 1 3 2 5 5 7 10 9 4 4 4 4 2 1 7 10 7 6 10 12 8 6 7 8 8 8 8 9 9 7 4 5 6 6 6 6 6 6 6 6 8 11 11 9 9 7 6 5 5 5 5 6 6 7 9 10 10 11 12 14 17 20 22 23 25 27 28 30 30 30 30 31 32 33 34 35 35 36
5 4 4 4 4 6 4 3 2 1 2 5 6 8 10 12 10 6 7 8 6 6 10 10 9 10 11 11 9 6 7 8 8 8 7 6 5 4 5 7 7 7 7 7 7 7 7 6 8 11 12 10 9 9 8 8 8 8 8 8 8 9 11 12 11 12 13 15 17 20 23 24 26 28 29 30 31 31 32 32 33 34 35 36 37 37
3 2 2 3 3 6 5 3 2 1 3 5 7 10 11 12 11 8 9 12 9 9 11 11 12 14 12 10 8 7 6 6 5 3 2 3 4 6 7 8 8 7 7 7 7 7 7 7 10 12 12 12 12 12 11 11 11 10 10 10 11 11 12 12 13 13 15 17 19 22 25 27 28 30 31 31 32 32 33 33 35 36 37 37 37 38
2 1 1 2 0 5 4 1 2 1 4 6 10 12 12 11 10 10 12 11 9 10 13 12 12 12 10 7 6 5 3 2 3 3 4 4 6 7 7 7 7 7 7 8 8 8 7 8 11 13 14 16 17 16 15 14 14 13 12 12 12 10 11 11 12 13 14 16 19 23 28 29 29 30 31 31 32 33 33 34 35 37 38 38 38 38
1 1 0 3 2 5 3 3 1 4 4 7 13 17 15 11 10 11 9 8 9 11 12 10 9 9 6 4 4 2 2 3 3 4 4 3 5 7 7 7 7 7 8 8 9 8 8 8 11 14 17 19 19 18 17 17 16 15 14 13 10 10 10 10 11 12 13 16 19 24 28 28 28 29 30 30 31 32 33 34 35 36 37 36 36 37
3 3 1 3 2 5 3 4 3 2 3 7 12 13 14 12 11 10 8 9 12 10 8 8 8 7 5 4 5 2 1 2 4 4 3 3 4 6 6 7 7 8 9 9 9 8 9 11 15 18 20 20 19 19 19 18 17 14 12 9 9 9 10 10 10 12 15 18 22 26 26 26 26 28 28 29 29 30 32 33 34 35 34 34 36 37
3 5 2 3 3 4 2 4 4 3 7 8 4 5 9 10 11 11 11 13 12 9 7 7 5 4 4 5 5 6 5 4 4 4 3 4 4 5 5 6 7 7 7 7 7 7 10 13 17 19 20 19 18 18 16 14 11 8 6 7 8 8 9 9 11 14 18 22 25 25 24 24 25 26 26 27 27 29 31 32 33 34 34 35 37 38
4 5 3 3 3 2 0 5 1 8 9 5 2 2 6 8 10 11 11 11 10 9 9 7 5 5 6 6 7 6 6 5 3 3 4 4 5 5 6 6 6 6 6 5 5 7 9 12 13 13 14 14 12 10 8 7 5 4 5 6 7 7 7 10 14 18 22 24 24 23 22 23 23 24 26 27 29 30 31 31 32 33 34 34 36 37
6 5 3 3 2 1 1 3 6 7 5 7 7 4 2 3 5 6 7 8 9 8 6 6 7 7 6 6 6 4 3 1 0 2 4 5 5 6 6 7 6 5 6 7 7 9 10 9 9 8 7 6 7 7 5 4 4 5 6 6 5 7 9 13 17 20 22 22 22 21 21 22 24 26 28 30 30 31 32 32 32 33 32 33 35 36
7 5 3 2 3 2 3 6 5 5 8 11 10 5 2 4 4 4 2 6 8 5 4 5 5 5 5 4 3 2 3 4 4 4 5 5 6 6 6 7 7 7 9 11 12 12 11 8 6 5 8 9 8 6 5 5 5 5 5 4 7 10 13 16 19 19 19 19 19 20 21 23 25 28 29 30 30 32 33 32 33 33 32 32 35 36
6 6 5 3 3 2 3 4 4 4 7 9 7 4 3 4 6 7 3 4 7 5 4 6 5 5 4 4 3 3 4 3 3 5 5 5 5 5 6 8 10 11 13 15 15 12 8 6 8 10 11 10 8 7 6 5 4 4 5 8 11 14 16 17 17 17 17 18 19 21 23 24 25 26 28 30 31 33 33 33 33 33 32 31 33 35
6 5 5 4 4 4 4 5 5 5 7 7 6 5 5 5 6 6 4 4 6 5 5 6 6 6 7 6 5 5 4 1 5 6 5 5 6 5 5 7 10 12 14 16 17 12 8 11 12 11 10 9 8 6 4 4 4 6 9 11 13 14 15 15 15 16 17 20 21 22 23 23 24 25 27 30 31 32 32 33 33 33 32 31 32 34
5 4 4 5 6 8 8 6 5 5 6 5 6 6 6 4 6 6 4 7 5 4 5 7 6 7 8 7 6 6 5 6 6 6 6 7 7 6 7 8 9 12 15 16 14 9 11 13 13 11 10 8 6 4 3 5 7 9 11 11 12 13 13 14 15 18 20 22 22 22 22 23 24 25 26 28 30 31 31 31 32 32 32 33 33 34
2 2 3 5 8 10 10 7 5 4 5 6 7 8 6 3 5 0 8 7 5 5 6 7 7 8 8 7 6 5 7 8 7 6 6 5 5 7 10 11 12 12 13 12 8 10 12 12 11 10 9 6 4 2 5 7 9 10 11 11 13 14 15 16 19 21 22 22 23 23 23 23 24 26 26 26 28 30 30 30 30 31 32 34 35 35
2 1 2 5 6 7 7 6 5 5 4 6 6 5 4 3 1 6 7 4 5 7 6 6 7 7 7 8 8 7 8 8 7 5 5 5 5 7 9 12 13 10 7 5 8 12 12 11 11 10 7 4 1 4 7 9 10 10 11 13 15 16 17 19 21 22 23 24 24 24 25 25 25 25 26 26 26 28 30 30 30 31 32 33 34 35
5 3 3 5 5 3 4 6 5 5 4 7 7 2 2 4 6 5 3 3 5 6 6 6 7 7 7 8 8 9 9 8 6 5 6 6 6 7 9 12 12 9 7 8 11 12 12 11 10 7 3 0 3 6 7 9 10 10 13 15 17 18 20 21 23 23 24 25 25 26 26 27 26 26 26 26 27 27 29 30 30 30 30 30 32 34
3 4 4 5 3 4 4 6 6 5 6 7 7 4 5 6 6 5 5 4 5 5 5 6 6 7 8 8 9 9 9 8 7 6 6 6 6 7 9 11 11 9 9 11 10 9 9 8 7 4 1 2 4 6 8 9 10 12 15 17 18 19 21 22 23 24 25 25 26 27 28 28 27 27 26 26 26 27 28 29 30 29 29 29 30 32
5 6 4 4 4 5 5 5 5 4 4 5 5 6 7 7 6 6 6 5 5 5 5 5 6 8 8 9 9 8 7 8 8 7 6 6 6 6 8 10 10 9 11 12 10 7 5 4 3 2 1 3 5 7 8 9 11 15 17 18 18 20 22 22 23 25 25 26 27 28 29 29 28 27 26 25 25 26 27 28 29 29 29 29 30 30
6 4 1 1 2 1 2 4 5 3 4 5 6 7 7 7 7 6 6 6 6 6 5 5 7 8 8 8 8 7 8 8 8 7 7 6 6 6 7 7 6 9 11 11 8 5 3 0 2 2 3 5 6 8 9 11 13 16 17 18 18 20 20 22 24 25 25 26 27 28 29 30 29 28 26 25 24 25 26 27 28 29 29 30 30 29
5 4 3 4 3 2 3 4 6 6 8 9 8 6 6 8 8 6 6 6 7 7 7 7 8 9 8 8 8 8 9 9 8 7 6 6 6 7 6 7 8 10 10 9 6 4 2 3 4 6 6 7 8 9 11 13 14 15 16 17 18 18 19 21 23 24 25 26 28 29 28 28 29 28 27 27 26 26 26 26 27 29 30 31 31 29
3 4 5 7 7 6 6 7 7 8 10 9 7 5 6 8 9 8 7 8 8 8 8 8 8 8 7 8 9 9 9 8 7 7 6 6 6 5 6 10 11 10 9 7 5 4 4 5 6 8 9 9 9 10 13 15 15 15 15 16 16 17 19 21 22 23 25 26 27 28 27 26 27 28 28 28 28 27 27 28 29 30 30 31 31 30
3 3 4 4 5 5 7 9 8 8 10 11 9 9 9 9 9 9 9 9 8 8 8 8 8 8 8 9 8 8 8 8 7 7 7 6 4 5 8 12 12 10 9 7 6 5 6 7 8 8 9 10 11 12 14 15 16 15 15 15 15 16 18 21 22 23 24 25 26 26 26 26 26 27 28 29 29 28 27 27 29 31 32 32 31 30
4 7 6 3 3 6 9 9 7 6 8 10 10 11 11 10 9 9 9 9 9 9 9 9 9 9 9 10 9 8 8 8 7 7 6 5 6 8 11 13 12 10 8 7 6 7 7 7 8 8 10 11 12 13 15 16 16 15 14 13 14 16 18 21 22 23 24 24 25 26 26 27 27 27 28 28 29 29 29 27 26 28 32 34 32 31
8 9 8 6 7 10 12 11 8 7 8 10 9 10 10 8 8 10 11 11 10 10 10 9 9 8 7 8 9 9 8 7 7 8 6 5 8 11 12 12 11 9 8 7 7 7 7 7 8 9 11 12 13 15 16 17 16 14 13 13 14 15 17 20 22 23 24 25 26 27 27 27 27 27 27 28 28 28 30 30 29 28 30 31 32 32
Wind_Direction
134 114 145 197 205 221 225 216 217 227 229 233 245 252 242 243 263 260 267 265 184 220 258 238 245 267 264 270 270 272 304 12 81 99 96 95 89 86 82 76 67 62 53 42 43 42 41 39 37 38 39 42 44 43 45 47 49 50 51 52 52 53 59 65 65 64 64 63 60 59 59 58 48 34 25 13 0 353 343 328 306 282 265 254 248 244
126 157 212 215 209 220 234 228 224 236 242 241 237 248 257 244 256 263 263 269 190 171 263 270 304 288 278 279 278 287 342 24 116 117 110 104 97 88 86 80 73 71 54 45 43 40 40 40 40 41 41 41 41 42 44 46 48 51 53 52 51 54 59 61 64 65 62 60 61 62 64 70 71 64 54 34 0 338 334 330 325 321 311 290 268 257
157 212 233 226 214 225 251 251 238 244 245 245 229 219 260 260 276 289 283 290 72 163 261 300 307 277 275 273 285 317 61 69 78 104 111 108 103 93 87 85 79 73 55 47 41 36 37 38 41 44 44 44 43 43 44 45 47 49 51 52 53 55 59 62 65 68 67 66 67 64 62 65 63 57 53 51 39 5 344 333 327 322 315 308 296 280
189 231 235 233 221 222 251 262 257 262 262 249 233 221 258 264 264 282 294 316 310 222 257 278 278 277 274 272 308 18 86 91 73 87 90 90 101 98 95 88 79 74 62 53 43 34 34 35 39 43 45 47 47 46 45 45 46 47 49 51 53 55 58 63 66 70 74 77 78 74 72 72 66 59 57 59 57 50 41 24 6 351 336 326 312 300
216 225 219 225 223 212 235 259 257 257 275 260 221 205 237 254 225 225 274 326 325 313 309 279 310 307 253 248 267 61 92 96 95 95 86 80 91 92 91 81 71 71 67 59 52 37 34 36 39 42 44 47 48 47 46 47 47 48 50 52 54 55 58 63 67 71 77 80 80 80 78 74 68 61 55 51 50 51 47 36 23 15 5 354 337 318
235 234 210 218 228 210 217 247 240 214 249 290 236 208 221 240 236 228 279 11 10 323 315 75 332 305 254 242 212 165 128 104 103 96 93 91 82 81 80 75 70 69 68 64 58 48 42 41 42 43 43 45 46 48 49 51 53 52 53 55 55 56 57 61 67 73 77 77 74 72 68 60 54 50 44 40 41 41 34 24 18 17 13 7 1 344
235 224 204 219 229 210 207 239 229 174 162 277 249 210 210 216 212 215 201 73 20 264 292 69 105 277 277 263 246 217 154 123 109 91 94 91 76 77 75 72 71 66 68 70 61 52 47 42 41 41 40 43 46 49 54 56 57 57 57 57 56 55 55 58 64 71 76 76 73 70 65 58 51 46 41 41 43 39 31 23 15 11 8 8 10 6
216 186 171 187 202 185 196 238 226 156 137 243 245 148 128 155 169 188 169 175 231 254 317 0 140 258 278 242 245 243 183 125 114 95 88 86 80 79 77 74 74 67 64 71 68 58 49 43 41 40 41 45 49 52 56 57 58 60 59 59 58 56 55 56 60 66 70 72 72 70 67 61 55 49 45 43 43 42 39 37 29 17 8 359 359 3
238 170 203 174 148 169 204 236 200 148 151 240 229 117 109 131 148 150 131 164 292 348 309 266 156 237 276 249 249 241 184 148 149 128 111 104 97 90 85 81 78 76 64 61 66 63 58 50 45 45 46 49 53 55 57 59 61 62 62 62 61 58 56 55 58 62 66 68 69 67 65 61 56 52 48 45 43 40 37 37 33 29 24 14 360 352
308 189 205 149 142 207 219 254 152 143 183 228 146 88 63 71 81 78 103 112 24 353 251 220 178 207 269 276 266 215 176 188 165 133 128 120 110 100 92 84 74 72 66 56 60 62 62 59 53 50 50 50 54 56 59 61 62 63 62 62 61 59 57 55 56 60 63 66 66 63 61 58 54 51 49 47 43 37 33 30 26 23 24 24 19 10
298 274 202 143 175 198 170 80 59 113 159 125 84 51 21 18 39 49 65 84 58 294 244 211 199 191 260 285 250 208 221 175 149 141 142 124 109 103 91 83 69 65 69 61 60 61 62 62 59 54 50 49 53 57 59 60 61 62 63 63 62 59 58 56 56 59 62 64 64 61 59 57 53 51 49 46 42 37 34 31 26 21 18 17 17 16
318 314 252 232 198 139 110 85 15 25 63 88 77 63 31 347 16 34 9 46 110 252 258 230 206 181 217 263 251 314 315 145 145 155 148 131 118 110 98 89 77 64 68 64 58 58 59 60 58 54 50 49 52 56 58 58 60 62 63 65 65 61 59 58 58 60 62 62 62 61 59 57 54 52 50 47 43 40 37 34 29 25 22 18 14 10
299 242 237 275 261 138 117 113 337 358 32 79 86 85 71 326 352 25 299 178 211 246 258 224 172 168 228 249 45 10 350 48 112 130 134 129 124 118 111 104 91 75 69 66 62 57 55 60 60 56 52 50 52 56 59 60 61 63 65 67 67 63 60 60 61 62 62 62 61 60 58 57 55 54 52 50 47 44 41 38 34 30 26 23 19 14
302 294 257 171 297 169 142 164 229 308 101 134 139 129 130 173 209 251 246 239 261 260 251 205 142 205 254 292 36 33 18 54 90 104 115 119 121 122 118 112 103 94 88 82 81 74 65 65 65 66 63 60 62 64 64 65 65 67 69 70 70 67 65 65 64 64 63 63 62 61 59 57 56 55 53 52 49 47 45 43 39 35 30 26 22 18
230 302 237 178 250 184 170 189 176 143 159 179 161 142 153 169 175 215 225 213 245 263 272 269 212 212 221 351 30 46 56 68 86 98 105 107 113 119 114 113 113 112 113 111 104 93 84 79 77 81 83 79 78 74 72 71 70 71 71 72 72 70 68 68 67 66 64 63 63 62 60 57 56 55 54 53 50 48 47 44 43 39 35 31 27 22
192 256 247 220 245 165 179 218 154 116 104 230 142 123 197 200 175 211 236 196 187 265 285 265 243 203 148 96 58 75 76 76 84 93 101 102 108 112 112 121 127 130 133 123 113 103 99 99 98 99 102 97 86 79 78 75 72 71 70 70 71 69 68 67 66 64 63 62 62 61 59 57 56 55 54 52 50 48 46 44 42 40 36 33 30 26
195 255 281 6 355 186 188 219 172 134 167 229 125 183 228 190 141 138 286 257 129 231 253 221 260 304 99 96 68 82 81 85 94 100 106 115 118 118 127 142 144 142 138 132 133 131 124 125 123 114 107 97 87 81 79 76 69 65 63 63 64 64 64 63 61 60 58 57 56 54 53 51 50 50 50 48 47 45 43 41 39 36 33 30 27 25
160 265 274 144 187 248 196 150 5 55 125 128 168 229 248 64 94 107 245 290 270 245 251 241 255 259 224 230 148 109 114 122 134 128 125 133 133 136 149 156 157 152 149 151 151 152 148 144 136 121 104 93 91 84 77 72 65 61 60 58 58 59 60 59 58 57 54 51 49 47 44 41 39 39 39 38 38 36 34 33 31 28 26 23 20 19
104 283 282 202 167 257 28 66 356 342 48 125 183 235 57 66 286 320 161 223 250 256 271 258 246 245 230 207 168 170 172 162 161 150 145 152 152 159 166 168 174 165 165 171 168 179 171 155 141 124 110 100 96 85 74 71 67 65 63 60 58 58 58 59 59 58 54 50 47 42 39 35 31 30 27 25 25 24 24 22 20 18 16 14 11 10
92 165 276 309 120 140 30 63 197 287 348 56 34 346 60 164 197 229 213 191 227 254 268 256 241 248 250 196 174 191 185 167 166 163 162 170 173 181 181 180 187 183 186 190 185 191 175 155 136 119 109 98 92 81 72 71 69 66 63 61 60 55 54 55 55 55 52 47 44 38 34 30 25 24 21 17 12 11 12 12 9 8 6 5 4 3
62 169 236 314 349 76 175 203 180 179 170 62 19 336 286 263 239 266 258 176 168 226 256 257 250 252 269 273 201 196 179 164 164 160 163 178 186 196 196 191 194 196 199 197 191 183 156 136 120 107 100 92 88 85 77 70 67 67 62 59 58 51 48 48 47 48 46 40 37 32 27 20 15 15 14 12 8 2 2 1 359 358 356 355 356 356
90 187 194 274 293 217 224 231 169 140 147 152 170 208 210 214 241 273 270 226 163 200 228 246 261 263 268 323 323 161 151 152 157 154 162 186 196 201 201 197 196 196 199 197 187 169 143 130 121 112 103 91 90 93 94 83 72 70 66 59 56 51 48 45 42 42 41 38 34 30 25 13 5 4 6 7 6 360 355 352 351 349 347 347 348 348
108 126 158 239 245 225 240 252 204 146 183 175 176 206 198 185 174 215 250 253 228 266 268 258 267 263 236 304 344 109 142 153 157 160 173 192 202 200 199 202 202 199 195 186 170 156 148 146 146 142 140 141 140 139 150 149 101 77 72 62 53 47 43 38 30 27 28 29 29 26 22 11 2 360 1 2 1 358 351 345 344 344 342 341 341 341
68 98 182 258 282 299 296 305 358 22 51 144 312 0 158 184 169 186 224 222 139 260 273 271 259 246 239 300 343 118 142 154 169 182 185 192 201 202 204 207 203 194 180 163 154 155 157 160 162 164 168 169 170 170 170 166 143 105 93 71 52 41 32 23 11 7 10 13 12 12 10 5 0 357 356 354 353 351 347 340 339 339 338 337 336 337
97 152 153 179 313 322 328 340 355 4 32 106 261 260 141 138 76 90 81 71 138 235 233 233 248 234 214 315 346 104 141 167 206 214 195 192 200 207 213 209 195 179 163 156 159 168 174 177 179 178 175 171 165 157 149 152 151 128 107 72 36 23 14 8 359 355 358 359 359 360 359 357 354 352 350 347 345 344 341 337 335 335 334 333 332 332
163 175 139 146 216 249 269 266 244 293 354 12 276 293 254 228 257 15 20 253 229 238 205 227 250 258 256 242 201 215 206 207 229 238 225 217 214 212 212 203 185 169 163 167 172 179 184 185 184 179 172 171 167 159 153 153 153 132 45 2 359 358 355 353 348 346 348 350 352 352 351 349 347 345 343 341 339 338 336 335 334 333 332 331 330 328
107 201 177 169 203 228 228 225 200 123 86 265 284 296 284 265 216 155 177 224 215 350 275 249 248 267 277 266 225 212 221 224 232 235 231 232 232 227 215 189 172 168 171 176 180 188 192 194 195 187 180 182 181 177 179 186 209 262 307 318 324 334 341 340 335 334 337 341 344 345 343 341 339 337 336 334 333 332 332 331 331 330 329 328 326 325
99 254 230 177 208 234 210 216 229 91 156 224 247 274 279 278 257 181 200 215 175 248 266 258 251 253 263 268 259 225 212 222 234 233 227 231 233 227 193 157 160 170 179 187 194 200 200 205 209 202 196 198 199 202 215 233 248 260 278 292 300 314 328 330 322 319 325 330 334 338 336 333 329 327 327 326 326 326 326 326 326 325 324 323 322 321
115 237 240 166 219 258 236 239 300 41 215 225 233 252 265 270 267 256 246 233 209 230 258 265 265 258 257 266 269 248 220 219 226 229 231 231 220 187 148 153 173 185 192 201 210 211 207 211 215 210 210 214 217 223 232 238 245 257 273 289 296 305 319 324 316 311 315 320 326 331 330 326 322 320 319 319 319 320 320 320 320 320 319 318 317 316
111 231 243 163 227 272 263 263 341 336 263 265 258 253 254 260 264 260 254 248 235 236 251 259 263 263 264 264 259 248 232 214 201 198 161 132 149 151 154 171 189 199 205 211 219 223 219 217 219 219 224 229 229 230 233 237 242 252 270 282 284 293 309 314 307 304 308 313 318 323 324 321 318 315 315 315 315 315 316 315 315 315 314 313 312 311
88 165 206 128 337 286 261 159 62 279 262 272 273 264 257 260 264 256 253 256 257 251 251 254 258 263 269 267 251 236 207 151 117 120 132 146 153 153 168 191 200 205 214 219 223 227 224 222 224 225 226 229 230 230 231 233 236 245 259 264 264 277 295 296 290 291 296 302 310 315 318 316 313 311 311 311 311 311 311 310 310 310 310 309 308 306
87 151 284 80 64 279 263 109 158 275 286 277 270 264 257 251 249 249 247 242 245 253 259 262 258 257 266 264 251 239 98 100 123 136 140 162 171 167 182 201 205 207 216 222 224 225 225 223 220 220 222 225 226 226 226 228 233 240 245 248 255 274 281 274 272 279 287 296 305 310 311 310 308 306 306 307 308 307 306 306 306 307 306 305 303 302
127 130 110 101 131 270 280 111 152 256 292 269 258 251 248 246 246 251 253 244 242 246 254 257 253 250 246 229 226 239 114 153 181 171 147 144 170 187 197 200 207 213 216 220 223 222 220 219 217 217 220 223 225 227 228 230 232 234 237 247 263 268 262 258 267 280 291 299 304 306 307 306 304 303 304 305 305 304 304 304 304 304 303 301 300 299
144 140 169 156 163 255 284 78 94 214 243 253 238 191 211 229 236 240 245 246 243 239 243 256 258 239 225 214 216 228 229 211 196 191 181 156 170 210 226 219 218 222 224 227 226 220 220 221 222 223 226 230 232 231 229 226 224 228 240 253 254 249 249 263 279 290 296 300 303 305 306 305 304 303 303 303 303 302 302 302 301 300 299 298 298 297
159 156 181 174 157 211 81 63 139 231 236 260 302 183 206 217 221 231 244 248 244 245 252 263 261 234 222 227 225 217 213 209 186 186 202 197 194 213 239 247 238 231 235 237 231 233 234 230 233 240 241 239 232 217 205 204 211 225 232 230 232 242 265 283 291 296 298 299 303 306 307 305 303 302 302 303 303 302 300 300 298 297 297 297 296 295
168 166 175 174 167 182 165 185 220 242 288 305 293 283 262 234 223 236 264 262 248 241 233 239 253 242 216 214 217 196 175 163 1 244 232 234 228 219 232 250 248 229 228 235 237 243 250 251 253 253 230 196 180 173 174 188 199 203 206 215 242 273 290 296 296 297 299 301 305 306 304 302 302 302 303 303 303 302 300 300 299 298 299 298 296 294
166 164 163 190 213 196 200 225 246 318 319 288 275 266 213 205 188 169 229 263 257 233 178 186 235 236 199 187 188 142 88 48 1 304 263 257 253 232 227 242 244 233 236 246 250 253 261 263 245 198 163 153 156 162 167 176 188 201 221 256 288 297 300 299 298 300 302 303 303 302 300 300 302 303 303 304 303 302 301 301 301 300 301 300 297 296
169 179 180 201 233 189 179 242 265 293 273 259 259 250 197 168 147 131 117 287 275 254 190 183 211 215 192 179 171 114 66 44 301 276 273 271 260 231 222 236 239 239 245 251 253 255 247 214 178 162 160 159 155 156 167 187 215 254 285 300 304 303 301 300 301 304 305 302 300 300 300 302 303 303 303 303 303 302 302 302 302 302 302 300 297 295
172 185 176 189 230 209 196 229 232 236 252 244 227 213 185 156 127 96 47 297 265 243 200 181 191 198 192 189 173 136 111 192 247 258 257 250 245 225 221 238 248 254 259 261 259 249 207 175 165 161 165 164 158 164 193 235 272 298 307 309 307 303 302 304 307 306 304 301 301 302 302 303 303 304 304 304 303 302 302 302 302 302 301 299 296 294
175 178 176 195 222 223 222 235 235 239 250 227 201 198 194 159 89 57 323 269 239 224 201 169 173 198 197 187 166 152 172 208 234 243 225 220 236 242 237 243 255 266 273 273 263 226 182 174 170 163 161 161 163 184 239 281 300 310 313 311 307 306 307 309 308 305 303 303 304 304 305 307 308 308 307 304 303 303 303 303 303 302 302 300 297 295
169 178 200 212 225 226 225 234 246 248 230 203 198 200 186 111 64 339 254 245 208 217 213 174 179 201 192 178 175 185 210 219 221 227 221 212 237 258 256 258 264 275 283 279 240 188 174 173 168 159 152 153 168 233 286 303 313 318 316 313 310 311 313 311 309 308 308 308 309 310 312 314 314 313 310 306 305 304 303 303 303 302 302 301 299 297
151 157 243 226 223 228 230 235 257 273 233 181 183 194 161 122 200 232 234 212 179 201 209 191 200 206 189 189 198 207 227 233 225 234 244 230 229 246 259 264 268 274 273 232 188 180 174 161 151 147 142 144 237 296 306 311 319 323 319 316 316 316 315 313 313 313 313 313 314 316 318 319 319 316 312 309 308 306 304 304 304 303 302 301 299 297
164 157 229 227 200 197 228 231 239 266 228 154 137 139 181 190 211 213 209 209 197 194 192 199 212 207 192 203 216 221 233 243 237 237 245 242 239 246 254 257 262 262 235 194 180 178 172 156 145 143 138 339 309 313 316 319 324 324 318 318 319 317 316 316 317 317 317 318 319 320 321 322 320 317 313 312 311 307 305 306 306 305 303 302 300 299
179 161 198 226 187 157 202 225 218 223 215 169 147 169 211 213 203 168 166 210 222 202 190 200 220 218 201 204 221 226 232 243 244 240 246 251 247 248 253 255 254 246 216 189 173 167 165 154 139 127 85 327 321 321 321 324 324 320 317 319 320 318 317 319 321 320 320 321 322 323 323 323 320 317 315 315 313 309 307 308 307 306 305 304 302 299
218 189 190 230 208 169 183 216 217 211 208 185 180 199 218 230 221 181 175 202 220 209 195 195 222 229 214 207 218 226 230 238 242 239 240 243 240 242 255 259 248 220 188 169 158 157 159 147 123 90 0 329 324 320 320 323 322 318 318 320 320 319 320 322 322 322 322 323 323 324 324 322 319 317 316 316 315 310 308 309 308 306 307 306 302 298
239 218 191 266 231 208 216 213 213 237 250 230 221 217 219 233 232 199 189 211 224 217 204 200 220 233 224 210 212 225 232 232 234 233 228 227 237 246 248 242 212 179 166 158 155 166 173 187 318 324 330 323 317 313 313 317 319 317 318 320 320 321 323 323 323 323 323 323 323 324 323 320 317 317 317 315 313 311 309 308 307 306 306 304 300 297
263 228 223 239 247 284 274 214 199 222 242 242 240 232 228 240 242 217 199 215 229 228 221 216 220 229 228 214 208 222 231 224 218 226 226 220 233 244 225 187 163 158 164 167 172 197 239 289 304 312 316 312 310 309 310 315 320 320 320 319 320 323 324 324 324 323 322 322 322 322 321 318 316 316 316 315 314 312 310 308 307 305 303 300 297 295
249 201 210 237 241 241 246 241 229 234 246 250 246 235 231 238 241 233 224 228 235 237 234 223 216 217 224 221 213 218 228 223 210 219 231 229 231 225 182 168 165 165 173 184 199 230 264 289 301 306 305 303 306 308 311 317 323 323 322 321 323 326 325 324 324 322 319 321 321 320 318 315 314 314 314 313 314 312 309 309 308 304 298 295 293 292
219 205 196 206 226 244 256 254 247 254 265 263 249 239 237 234 231 231 234 234 234 237 238 231 219 211 210 215 210 205 216 225 217 216 226 225 208 176 165 169 175 179 187 201 223 249 272 288 295 295 294 297 304 309 313 318 324 325 323 324 328 329 326 324 324 321 319 321 320 318 316 314 313 313 312 312 312 310 307 308 307 302 296 293 292 291
215 233 225 196 219 249 251 238 219 224 255 256 246 241 238 232 224 227 235 238 234 231 231 231 231 227 219 217 209 193 204 226 220 205 209 208 185 176 175 177 183 192 202 216 237 258 275 284 287 287 291 298 305 311 314 318 324 326 325 326 332 331 327 325 323 320 319 321 319 316 315 314 312 312 312 312 311 309 308 307 304 298 294 293 294 294
219 226 223 218 231 243 247 240 214 207 237 248 245 242 238 228 218 221 230 235 233 229 224 219 223 229 228 224 211 192 198 221 210 189 188 192 188 187 187 189 195 203 214 230 249 268 278 281 284 288 294 301 308 311 314 318 323 325 326 330 334 332 327 325 322 318 318 319 316 314 314 313 312 312 312 311 310 309 309 309 306 300 296 295 297 298